Location: Newark
(38.1089°N, 103.8675°W)
Time: 13:01:06
(UTC+00:00)

Envisat - Pass Details

Date: 19 December 2019
Orbit: 764 x 766 km, 98.1° (Epoch: 18 January)

Event Time Altitude Azimuth Distance (km) Brightness Sun altitude
Rises 12:28:53 0° 32° (NNE) 3,237 6.5 -18.6°
Reaches altitude 10° 12:32:04 10° 53° (NE) 2,305 6.0 -18.0°
Maximum altitude 12:35:13 16° 92° (E) 1,889 6.1 -17.4°
Drops below altitude 10° 12:38:22 10° 131° (SE) 2,294 6.5 -16.8°
Sets 12:41:31 0° 152° (SSE) 3,215 7.0 -16.2°
